Gainesville, GA

7:06 AM EDT on June 24, 2017 (GMT -0400)
Gilmer Memorial

Weather History for KGVL - August, 2013

Change the Weather History Date:

Saturday, August 31, 2013

  Actual Average Record
Temperature  
Mean Temperature 79 °F 76 °F  
Max Temperature 88 °F 85 °F 99 °F (1953)
Min Temperature 69 °F 68 °F 50 °F (1936)
Cooling Degree Days 14 11  
Month to date cooling degree days 333 404  
Year to date cooling degree days 1152 1326  
Since 1 June cooling degree days 1007 1151  
Growing Degree Days 28 (Base 50)    
Moisture  
Dew Point 69 °F    
Average Humidity 75    
Maximum Humidity 93    
Minimum Humidity 57    
Precipitation  
Precipitation 1.69 in 0.12 in 1.69 in (2013)
Month to date precipitation 8.80 4.43  
Year to date precipitation 41.90 36.25  
Sea Level Pressure  
Sea Level Pressure 29.97 in    
Wind  
Wind Speed 2 mph (WSW)    
Max Wind Speed 16 mph    
Max Gust Speed 29 mph    
Visibility 6 miles    
Events Rain , Thunderstorm    
T = Trace of Precipitation, MM = Missing Value Source: NWS Daily Summary

Daily Weather History Graph

Daily Weather History Graph

Search for Another Location

Airport or City:

Trip Planner

Search our weather history database for the weather conditions in past years. The results will help you decide how hot, cold, wet, or windy it might be!

Date:

Astronomy

Aug. 31, 2013 Rise Set
Actual Time 7:08 AM EDT 8:02 PM EDT
Civil Twilight 6:42 AM EDT 8:27 PM EDT
Nautical Twilight 6:12 AM EDT 8:58 PM EDT
Astronomical Twilight 5:40 AM EDT 9:29 PM EDT
Moon 2:43 AM EDT (8/31) 4:53 PM EDT (8/31)
Length of Visible Light 13h 45m
Length of Day
12h 54m
Waning Crescent, 21% of the Moon is Illuminated
Aug 31
Waning Crescent
Sep 5
New
Sep 12
First Quarter
Sep 19
Full
Sep 26
Last Quarter

Hourly Weather History & Observations

Time (EDT) Temp. Heat Index Dew Point Humidity Pressure Visibility Wind Dir Wind Speed Gust Speed Precip Events Conditions
12:25 AM 75.2 °F - 71.6 °F 89% 30.03 in 6.0 mi SSE 3.5 mph - N/A   Overcast
12:53 AM 73.9 °F - 72.0 °F 93% 29.98 in 5.0 mi SSE 3.5 mph - N/A   Mostly Cloudy
1:53 AM 73.9 °F - 71.1 °F 91% 29.97 in 5.0 mi Calm Calm - N/A   Clear
2:53 AM 73.0 °F - 71.1 °F 93% 29.96 in 4.0 mi Calm Calm - N/A   Partly Cloudy
3:53 AM 73.0 °F - 70.0 °F 90% 29.96 in 5.0 mi NNE 3.5 mph - N/A   Partly Cloudy
4:23 AM 73.4 °F - 71.6 °F 94% 30.01 in 5.0 mi Calm Calm - N/A   Mostly Cloudy
4:53 AM 73.9 °F - 71.1 °F 91% 29.95 in 6.0 mi Calm Calm - N/A   Mostly Cloudy
5:40 AM 73.4 °F - 69.8 °F 88% 30.00 in 5.0 mi Calm Calm - N/A   Mostly Cloudy
5:53 AM 73.9 °F - 71.1 °F 91% 29.96 in 5.0 mi NNE 3.5 mph - N/A   Overcast
6:33 AM 73.4 °F - 71.6 °F 94% 30.01 in 5.0 mi Calm Calm - N/A   Scattered Clouds
6:53 AM 72.0 °F - 70.0 °F 93% 29.96 in 4.0 mi Calm Calm - N/A   Clear
7:14 AM 71.6 °F - 69.8 °F 94% 30.01 in 2.0 mi Calm Calm - N/A   Clear
7:30 AM 71.6 °F - 69.8 °F 94% 30.02 in 2.5 mi Calm Calm - N/A   Clear
7:38 AM 73.4 °F - 69.8 °F 88% 30.01 in 4.0 mi Calm Calm - N/A   Clear
7:53 AM 73.9 °F - 71.1 °F 91% 29.97 in 3.0 mi NW 3.5 mph - N/A   Clear
8:53 AM 77.0 °F - 72.0 °F 84% 29.99 in 5.0 mi Calm Calm - N/A   Haze
9:08 AM 77.0 °F - 71.6 °F 83% 30.03 in 5.0 mi Calm Calm - N/A   Haze
9:43 AM 77.0 °F - 71.6 °F 83% 30.03 in 6.0 mi Calm Calm - N/A   Haze
9:50 AM 78.8 °F - 71.6 °F 78% 30.04 in 6.0 mi SSE 3.5 mph - N/A   Haze
9:53 AM 77.0 °F - 72.0 °F 84% 29.99 in 6.0 mi Calm Calm - N/A   Haze
10:53 AM 81.0 °F 84.9 °F 71.1 °F 72% 29.99 in 7.0 mi West 5.8 mph - N/A   Mostly Cloudy
11:12 AM 80.6 °F 84.6 °F 71.6 °F 74% 30.04 in 8.0 mi Calm Calm - N/A   Scattered Clouds
11:53 AM 82.9 °F 87.5 °F 71.1 °F 67% 29.98 in 9.0 mi WSW 4.6 mph - N/A   Partly Cloudy
12:53 PM 84.9 °F 89.4 °F 70.0 °F 61% 29.97 in 10.0 mi Variable 6.9 mph - N/A   Scattered Clouds
1:53 PM 86.0 °F 90.1 °F 69.1 °F 57% 29.95 in 10.0 mi West 3.5 mph - N/A   Partly Cloudy
2:53 PM 86.0 °F 90.1 °F 69.1 °F 57% 29.92 in 10.0 mi Variable 3.5 mph - N/A   Mostly Cloudy
3:20 PM 87.8 °F 92.6 °F 69.8 °F 55% 29.96 in 10.0 mi Calm Calm - N/A Thunderstorm Mostly Cloudy
3:53 PM 82.9 °F 86.5 °F 69.1 °F 63% 29.91 in 10.0 mi NW 8.1 mph - N/A Thunderstorm Thunderstorm
4:04 PM 78.8 °F - 69.8 °F 74% 29.98 in 1.2 mi Variable 3.5 mph - 0.18 in Rain , Thunderstorm Heavy Thunderstorms and Rain
4:11 PM 75.2 °F - 69.8 °F 83% 29.99 in 0.2 mi North 8.1 mph 16.1 mph 0.56 in Rain , Thunderstorm Heavy Thunderstorms and Rain
4:19 PM 75.2 °F - 66.2 °F 73% 29.97 in 0.2 mi ESE 15.0 mph 20.7 mph 1.14 in Rain , Thunderstorm Heavy Thunderstorms and Rain
4:31 PM 71.6 °F - 66.2 °F 83% 29.98 in 0.8 mi SW 9.2 mph 16.1 mph 1.41 in Rain , Thunderstorm Heavy Thunderstorms and Rain
4:35 PM 71.6 °F - 64.4 °F 78% 29.98 in 1.2 mi Variable 4.6 mph 16.1 mph 1.44 in Rain , Thunderstorm Heavy Thunderstorms and Rain
4:41 PM 71.6 °F - 64.4 °F 78% 29.97 in 1.8 mi West 8.1 mph - 1.47 in Rain , Thunderstorm Heavy Thunderstorms and Rain
4:53 PM 70.0 °F - 64.9 °F 84% 29.93 in 1.5 mi WSW 10.4 mph - 1.60 in Rain , Thunderstorm Heavy Thunderstorms and Rain
5:04 PM 69.8 °F - 66.2 °F 88% 29.97 in 2.0 mi South 6.9 mph - 0.06 in Rain , Thunderstorm Thunderstorms and Rain
5:07 PM 69.8 °F - 66.2 °F 88% 29.97 in 3.0 mi South 8.1 mph - 0.06 in Rain , Thunderstorm Rain
5:49 PM 71.6 °F - 66.2 °F 83% 29.96 in 10.0 mi Calm Calm - 0.07 in   Scattered Clouds
5:53 PM 71.1 °F - 66.9 °F 87% 29.91 in 10.0 mi Calm Calm - 0.07 in   Scattered Clouds
6:53 PM 73.9 °F - 66.9 °F 79% 29.91 in 10.0 mi Calm Calm - N/A   Clear
7:53 PM 73.0 °F - 68.0 °F 84% 29.91 in 10.0 mi Calm Calm - N/A   Clear
8:53 PM 73.0 °F - 68.0 °F 84% 29.95 in 10.0 mi ESE 3.5 mph - N/A   Mostly Cloudy
9:53 PM 72.0 °F - 69.1 °F 91% 29.96 in 10.0 mi Calm Calm - 0.02 in   Overcast
10:53 PM 73.0 °F - 66.9 °F 81% 29.94 in 10.0 mi Calm Calm - N/A   Mostly Cloudy
11:53 PM 71.1 °F - 68.0 °F 90% 29.93 in 8.0 mi Calm Calm - N/A   Clear